EW9807 Weather Reports


Display with metric or nautical units.
time (UTC)temp
F
wind
direction
speed
MPH
gust
MPH
rain 1hr
in
rain 24hr
in
rain mn
in
humidity
%
barometer
mb
20260903200549 93 72 1.0 4.0 0.00 0.00 0.00 56 1013.7
20260903200048 92 72 0.0 4.0 0.00 0.00 0.00 55 1013.9
20260903195549 92 224 0.0 3.0 0.00 0.00 0.00 57 1014.0
20260903195047 92 215 0.0 2.0 0.00 0.00 0.00 56 1014.0
20260903194551 92 215 0.0 3.0 0.00 0.00 0.00 54 1014.0
20260903194046 93 129 1.0 3.0 0.00 0.00 0.00 52 1014.2
20260903193549 94 150 1.0 4.0 0.00 0.00 0.00 52 1014.2
20260903193051 94 169 1.0 4.0 0.00 0.00 0.00 53 1014.2
20260903192545 94 139 1.0 5.0 0.00 0.00 0.00 53 1014.2
20260903192044 94 68 2.0 5.0 0.00 0.00 0.00 52 1014.3
20260903191548 94 181 1.0 7.0 0.00 0.00 0.00 54 1014.4
20260903191043 94 136 3.0 7.0 0.00 0.00 0.00 52 1014.4
20260903190542 94 174 2.0 6.0 0.00 0.00 0.00 53 1014.5
20260903190055 94 158 2.0 6.0 0.00 0.00 0.00 55 1014.5
20260903185541 92 160 1.0 3.0 0.00 0.00 0.00 55 1014.6
20260903185042 91 88 0.0 3.0 0.00 0.00 0.00 58 1014.6
20260903184541 91 172 0.0 1.0 0.00 0.00 0.00 58 1014.6
20260903184041 92 173 0.0 2.0 0.00 0.00 0.00 56 1014.7
20260903183540 93 173 0.0 4.0 0.00 0.00 0.00 54 1014.8
20260903183039 94 171 2.0 4.0 0.00 0.00 0.00 55 1014.8
20260903182539 93 148 2.0 5.0 0.00 0.00 0.00 54 1014.9
20260903182038 94 175 2.0 5.0 0.00 0.00 0.00 56 1014.9
20260903181545 92 96 1.0 4.0 0.00 0.00 0.00 57 1014.9
20260903181040 91 79 0.0 2.0 0.00 0.00 0.00 58 1014.9
20260903180537 93 77 1.0 3.0 0.00 0.00 0.00 56 1015.0
20260903180040 92 82 1.0 3.0 0.00 0.00 0.00 58 1015.0
20260903175537 91 46 0.0 0.0 0.00 0.00 0.00 60 1015.1
20260903175036 92 46 0.0 3.0 0.00 0.00 0.00 56 1015.0
20260903174536 94 115 0.0 6.0 0.00 0.00 0.00 55 1015.2
20260903174033 94 186 1.0 5.0 0.00 0.00 0.00 56 1015.2
20260903173534 93 6 0.0 3.0 0.00 0.00 0.00 57 1015.3
20260903173033 93 6 1.0 3.0 0.00 0.00 0.00 58 1015.3
20260903172533 93 98 0.0 7.0 0.00 0.00 0.00 57 1015.3
20260903172032 91 174 3.0 7.0 0.00 0.00 0.00 61 1015.5
20260903171537 91 32 2.0 6.0 0.00 0.00 0.00 60 1015.5
20260903171032 90 56 0.0 2.0 0.00 0.00 0.00 62 1015.6
20260903170531 91 56 0.0 3.0 0.00 0.00 0.00 61 1015.7
20260903170035 92 56 0.0 4.0 0.00 0.00 0.00 57 1015.6
20260903165532 94 235 1.0 4.0 0.00 0.00 0.00 56 1015.7
20260903165028 94 91 1.0 4.0 0.00 0.00 0.00 58 1015.7
20260903164529 93 172 1.0 5.0 0.00 0.00 0.00 58 1015.8
20260903164027 92 3 1.0 4.0 0.00 0.00 0.00 60 1015.8
20260903163526 91 74 1.0 3.0 0.00 0.00 0.00 61 1015.9
20260903163033 90 319 1.0 3.0 0.00 0.00 0.00 62 1016.0
20260903162525 91 327 1.0 3.0 0.00 0.00 0.00 62 1016.1
20260903162025 91 46 1.0 4.0 0.00 0.00 0.00 61 1016.2
20260903161525 91 125 2.0 4.0 0.00 0.00 0.00 61 1016.2
20260903161023 91 313 0.0 3.0 0.00 0.00 0.00 64 1016.2
20260903160525 90 313 0.0 3.0 0.00 0.00 0.00 63 1016.2
20260903160020 90 311 1.0 4.0 0.00 0.00 0.00 65 1016.3
20260903155518 90 88 1.0 4.0 0.00 0.00 0.00 65 1016.4
20260903155017 89 120 0.0 3.0 0.00 0.00 0.00 67 1016.5
20260903154517 89 200 0.0 3.0 0.00 0.00 0.00 67 1016.4
20260903154020 89 69 0.0 2.0 0.00 0.00 0.00 70 1016.5
20260903153514 88 62 1.0 2.0 0.00 0.00 0.00 67 1016.4
20260903153014 88 62 1.0 3.0 0.00 0.00 0.00 69 1016.4
20260903152516 88 86 1.0 3.0 0.00 0.00 0.00 68 1016.5
20260903152011 88 189 0.0 2.0 0.00 0.00 0.00 70 1016.5
20260903151509 87 191 0.0 2.0 0.00 0.00 0.00 69 1016.4
20260903151008 87 226 0.0 2.0 0.00 0.00 0.00 71 1016.5
20260903150506 86 292 1.0 2.0 0.00 0.00 0.00 70 1016.5
20260903150006 86 186 0.0 2.0 0.00 0.00 0.00 71 1016.5
20260903145503 85 186 0.0 2.0 0.00 0.00 0.00 72 1016.4
20260903145003 85 186 0.0 4.0 0.00 0.00 0.00 72 1016.5
20260903144501 85 186 1.0 4.0 0.00 0.00 0.00 73 1016.5
20260903144103 85 187 0.0 2.0 0.00 0.00 0.00 75 1016.5
20260903143600 84 127 0.0 0.0 0.00 0.00 0.00 76 1016.5
20260903143101 84 127 0.0 0.0 0.00 0.00 0.00 77 1016.4
20260903142557 84 127 0.0 0.0 0.00 0.00 0.00 77 1016.5
20260903142101 83 127 0.0 0.0 0.00 0.00 0.00 78 1016.5
20260903141600 83 127 0.0 0.0 0.00 0.00 0.00 79 1016.5
20260903141056 83 127 0.0 0.0 0.00 0.00 0.00 78 1016.4
20260903140553 82 127 0.0 0.0 0.00 0.00 0.00 78 1016.4
20260903140052 82 127 0.0 1.0 0.00 0.00 0.00 80 1016.4
20260903135550 82 127 0.0 2.0 0.00 0.00 0.00 82 1016.4
20260903135050 81 127 0.0 2.0 0.00 0.00 0.00 82 1016.6
20260903134548 81 127 0.0 0.0 0.00 0.00 0.00 82 1016.6
20260903134050 81 127 0.0 0.0 0.00 0.00 0.00 83 1016.6
20260903133547 80 127 0.0 0.0 0.00 0.00 0.00 83 1016.7
20260903133047 80 127 0.0 0.0 0.00 0.00 0.00 83 1016.7
20260903132544 80 127 0.0 0.0 0.00 0.00 0.00 84 1016.7
20260903132044 79 127 0.0 0.0 0.00 0.00 0.00 85 1016.7
20260903131544 79 127 0.0 0.0 0.00 0.00 0.00 86 1016.7
20260903131042 79 127 0.0 0.0 0.00 0.00 0.00 86 1016.8
20260903130540 78 127 0.0 0.0 0.00 0.00 0.00 87 1016.8
20260903130040 78 127 0.0 0.0 0.00 0.00 0.00 90 1016.8
20260903125540 78 127 0.0 0.0 0.00 0.00 0.00 90 1016.8
20260903125040 77 127 0.0 0.0 0.00 0.00 0.00 91 1016.8
20260903124539 77 127 0.0 0.0 0.00 0.00 0.00 91 1016.9
20260903124038 76 127 0.0 0.0 0.00 0.00 0.00 92 1016.9
20260903123538 76 127 0.0 0.0 0.00 0.00 0.00 93 1016.8
20260903123037 76 127 0.0 0.0 0.00 0.00 0.00 93 1016.8
20260903122537 75 127 0.0 0.0 0.00 0.00 0.00 94 1016.7
20260903122035 75 127 0.0 0.0 0.00 0.00 0.00 94 1016.6
20260903121534 75 127 0.0 0.0 0.00 0.00 0.00 94 1016.7
20260903121033 75 127 0.0 0.0 0.00 0.00 0.00 94 1016.6
20260903120532 74 127 0.0 0.0 0.00 0.00 0.00 94 1016.6
20260903120034 74 127 0.0 0.0 0.00 0.00 0.00 94 1016.4
20260903115531 74 127 0.0 0.0 0.00 0.00 0.00 94 1016.4
20260903115032 74 127 0.0 0.0 0.00 0.00 0.00 94 1016.4
20260903114531 74 127 0.0 0.0 0.00 0.00 0.00 94 1016.3
20260903114028 74 127 0.0 0.0 0.00 0.00 0.00 94 1016.2
20260903113531 74 127 0.0 0.0 0.00 0.00 0.00 94 1016.2
20260903113028 74 127 0.0 0.0 0.00 0.00 0.00 94 1016.2
20260903112527 74 127 0.0 0.0 0.00 0.00 0.00 94 1016.1
20260903112031 74 127 0.0 0.0 0.00 0.00 0.00 93 1016.0
20260903111526 74 127 0.0 0.0 0.00 0.00 0.00 93 1016.1
20260903111029 74 127 0.0 0.0 0.00 0.00 0.00 93 1016.0
20260903110525 74 127 0.0 0.0 0.00 0.00 0.00 93 1015.8
20260903110025 74 127 0.0 0.0 0.00 0.00 0.00 93 1015.8
20260903105524 74 127 0.0 0.0 0.00 0.00 0.00 93 1015.8
20260903105024 74 127 0.0 0.0 0.00 0.00 0.00 93 1015.8
20260903104523 74 127 0.0 0.0 0.00 0.00 0.00 93 1015.8
20260903104022 74 127 0.0 0.0 0.00 0.00 0.00 93 1015.8
20260903103523 74 127 0.0 0.0 0.00 0.00 0.00 92 1015.7
20260903103022 74 127 0.0 0.0 0.00 0.00 0.00 93 1015.7
20260903102522 74 127 0.0 0.0 0.00 0.00 0.00 93 1015.6
20260903102022 74 127 0.0 0.0 0.00 0.00 0.00 93 1015.6
20260903101521 74 127 0.0 0.0 0.00 0.00 0.00 93 1015.6
20260903101022 74 127 0.0 0.0 0.00 0.00 0.00 92 1015.6
20260903100521 74 127 0.0 0.0 0.00 0.00 0.00 92 1015.5
20260903100026 74 127 0.0 0.0 0.00 0.00 0.00 92 1015.5
20260903095520 74 127 0.0 0.0 0.00 0.00 0.00 92 1015.6
20260903095020 74 127 0.0 0.0 0.00 0.00 0.00 92 1015.5
20260903094520 74 127 0.0 0.0 0.00 0.00 0.00 92 1015.5
20260903094019 74 127 0.0 0.0 0.00 0.00 0.00 92 1015.5
20260903093525 74 127 0.0 0.0 0.00 0.00 0.00 92 1015.5
20260903093030 75 127 0.0 0.0 0.00 0.00 0.00 92 1015.4
20260903092519 75 127 0.0 0.0 0.00 0.00 0.00 91 1015.4
20260903092018 75 127 0.0 0.0 0.00 0.00 0.00 91 1015.5
20260903091518 75 127 0.0 0.0 0.00 0.00 0.00 91 1015.6
20260903091018 75 127 0.0 0.0 0.00 0.00 0.00 91 1015.5
20260903090517 75 127 0.0 0.0 0.00 0.00 0.00 91 1015.6
20260903090017 75 127 0.0 0.0 0.00 0.00 0.00 91 1015.5
20260903085517 75 127 0.0 0.0 0.00 0.00 0.00 91 1015.6
20260903085016 75 127 0.0 0.0 0.00 0.00 0.00 91 1015.6
20260903084516 75 127 0.0 0.0 0.00 0.00 0.00 91 1015.6
20260903084016 75 127 0.0 0.0 0.00 0.00 0.00 91 1015.6
20260903083515 75 127 0.0 0.0 0.00 0.00 0.00 91 1015.6
20260903083015 75 127 0.0 0.0 0.00 0.00 0.00 91 1015.6
20260903082518 75 127 0.0 0.0 0.00 0.00 0.00 90 1015.5
20260903082016 75 127 0.0 0.0 0.00 0.00 0.00 90 1015.5
20260903081527 75 127 0.0 0.0 0.00 0.00 0.00 90 1015.5
20260903081018 75 127 0.0 0.0 0.00 0.00 0.00 90 1015.5
20260903080517 75 127 0.0 0.0 0.00 0.00 0.00 90 1015.5
20260903080013 75 127 0.0 0.0 0.00 0.00 0.00 90 1015.5
20260903075513 76 127 0.0 0.0 0.00 0.00 0.00 90 1015.5
20260903075012 76 127 0.0 0.0 0.00 0.00 0.00 90 1015.5
20260903074511 76 127 0.0 0.0 0.00 0.00 0.00 90 1015.5
20260903074011 76 127 0.0 0.0 0.00 0.00 0.00 90 1015.4
20260903073511 76 127 0.0 0.0 0.00 0.00 0.00 90 1015.5
20260903073010 76 127 0.0 0.0 0.00 0.00 0.00 89 1015.5
20260903072510 76 127 0.0 0.0 0.00 0.00 0.00 89 1015.5
20260903072011 76 127 0.0 0.0 0.00 0.00 0.00 89 1015.5
20260903071511 76 127 0.0 0.0 0.00 0.00 0.00 89 1015.4
20260903071010 76 127 0.0 0.0 0.00 0.00 0.00 89 1015.4
20260903070512 76 127 0.0 0.0 0.00 0.00 0.00 89 1015.4
20260903070009 76 127 0.0 0.0 0.00 0.00 0.00 89 1015.4
20260903065508 76 127 0.0 0.0 0.00 0.00 0.00 89 1015.5
20260903065007 76 127 0.0 0.0 0.00 0.00 0.00 88 1015.5
20260903064507 76 127 0.0 0.0 0.00 0.00 0.00 88 1015.4
20260903064007 76 127 0.0 0.0 0.00 0.00 0.00 88 1015.5
20260903063510 77 127 0.0 0.0 0.00 0.00 0.00 88 1015.5
20260903063006 76 127 0.0 0.0 0.00 0.00 0.00 88 1015.6
20260903062506 77 127 0.0 0.0 0.00 0.00 0.00 88 1015.6
20260903062008 77 127 0.0 0.0 0.00 0.00 0.00 88 1015.6
20260903061505 77 127 0.0 0.0 0.00 0.00 0.00 88 1015.7
20260903061005 77 127 0.0 0.0 0.00 0.00 0.00 87 1015.8
20260903060504 77 127 0.0 0.0 0.00 0.00 0.00 87 1015.6
20260903060013 77 127 0.0 0.0 0.00 0.00 0.00 87 1015.6
20260903055504 77 127 0.0 0.0 0.00 0.00 0.00 87 1015.6
20260903055003 77 127 0.0 0.0 0.00 0.00 0.00 87 1015.6
20260903054503 77 127 0.0 0.0 0.00 0.00 0.00 88 1015.6
20260903054003 77 127 0.0 0.0 0.00 0.00 0.00 88 1015.7
20260903053501 77 127 0.0 0.0 0.00 0.00 0.00 88 1015.7
20260903053001 77 127 0.0 0.0 0.00 0.00 0.00 86 1015.7
20260903052501 78 127 0.0 0.0 0.00 0.00 0.00 86 1015.7
20260903052002 78 127 0.0 0.0 0.00 0.00 0.00 86 1015.8
20260903051501 77 127 0.0 0.0 0.00 0.00 0.00 86 1015.8
20260903051002 77 127 0.0 0.0 0.00 0.00 0.00 86 1015.8
20260903050600 77 127 0.0 0.0 0.00 0.00 0.00 87 1015.8
20260903050113 77 127 0.0 0.0 0.00 0.00 0.00 86 1015.8
20260903045600 77 127 0.0 0.0 0.00 0.00 0.00 85 1015.8
20260903045059 78 127 0.0 0.0 0.00 0.00 0.00 85 1015.7
20260903044604 78 127 0.0 0.0 0.00 0.00 0.00 85 1015.7
20260903044059 78 127 0.0 0.0 0.00 0.00 0.00 85 1015.7
20260903043558 78 127 0.0 0.0 0.00 0.00 0.00 84 1015.6
20260903043058 78 127 0.0 0.0 0.00 0.00 0.00 85 1015.7
20260903042558 78 127 0.0 0.0 0.00 0.00 0.00 85 1015.7
20260903042101 78 127 0.0 0.0 0.00 0.00 0.00 86 1015.7
20260903041609 78 127 0.0 0.0 0.00 0.00 0.00 86 1015.7
20260903041058 78 127 0.0 0.0 0.00 0.00 0.00 85 1015.8
20260903040557 78 127 0.0 0.0 0.00 0.00 0.00 86 1015.8
20260903040100 78 127 0.0 0.0 0.00 0.00 0.00 85 1015.7
20260903035554 78 127 0.0 0.0 0.00 0.00 0.00 84 1015.8
20260903035054 78 127 0.0 0.0 0.00 0.00 0.00 83 1015.7
20260903034603 78 127 0.0 0.0 0.00 0.00 0.00 83 1015.7
20260903034057 78 127 0.0 0.0 0.00 0.00 0.00 83 1015.6
20260903033554 78 127 0.0 0.0 0.00 0.00 0.00 83 1015.7
20260903033054 79 127 0.0 0.0 0.00 0.00 0.00 83 1015.7
20260903032554 79 127 0.0 0.0 0.00 0.00 0.00 83 1015.8
20260903032056 79 127 0.0 0.0 0.00 0.00 0.00 82 1015.8
20260903031555 79 127 0.0 0.0 0.00 0.00 0.00 82 1015.8
20260903031056 79 127 0.0 0.0 0.00 0.00 0.00 83 1015.8
20260903030556 79 127 0.0 0.0 0.00 0.00 0.00 83 1015.8
20260903030053 79 127 0.0 0.0 0.00 0.00 0.00 83 1015.9
20260903025553 79 127 0.0 0.0 0.00 0.00 0.00 83 1016.0
20260903025054 79 127 0.0 0.0 0.00 0.00 0.00 82 1016.0
20260903024553 79 127 0.0 0.0 0.00 0.00 0.00 81 1016.0
20260903024053 79 127 0.0 0.0 0.00 0.00 0.00 81 1016.0
20260903023552 79 127 0.0 0.0 0.00 0.00 0.00 81 1015.9
20260903023054 80 127 0.0 0.0 0.00 0.00 0.00 80 1015.9
20260903022554 80 127 0.0 0.0 0.00 0.00 0.00 81 1016.0
20260903022052 80 127 0.0 0.0 0.00 0.00 0.00 80 1016.0
20260903021556 80 127 0.0 0.0 0.00 0.00 0.00 79 1015.9
20260903021054 80 127 0.0 0.0 0.00 0.00 0.00 79 1015.9
20260903020554 80 127 0.0 0.0 0.00 0.00 0.00 79 1015.9
20260903020054 81 127 0.0 0.0 0.00 0.00 0.00 78 1015.8
20260903015551 81 127 0.0 0.0 0.00 0.00 0.00 79 1015.8
20260903015051 81 127 0.0 0.0 0.00 0.00 0.00 79 1015.7
20260903014603 82 127 0.0 0.0 0.00 0.00 0.00 77 1015.6
20260903014054 82 127 0.0 1.0 0.00 0.00 0.00 74 1015.6
20260903013552 83 127 0.0 1.0 0.00 0.00 0.00 73 1015.5
20260903013101 83 127 0.0 1.0 0.00 0.00 0.00 72 1015.5
20260903012550 84 127 0.0 1.0 0.00 0.00 0.00 71 1015.5
20260903012050 85 127 0.0 1.0 0.00 0.00 0.00 70 1015.3
20260903011550 85 127 0.0 1.0 0.00 0.00 0.00 69 1015.3
20260903011051 85 127 0.0 2.0 0.00 0.00 0.00 67 1015.3
20260903010550 86 127 0.0 2.0 0.00 0.00 0.00 65 1015.2
20260903010050 86 120 0.0 1.0 0.00 0.00 0.00 67 1015.1
20260903005550 87 120 0.0 4.0 0.00 0.00 0.00 63 1015.1
20260903005050 87 122 0.0 1.0 0.00 0.00 0.00 63 1015.1
20260903004554 87 122 0.0 2.0 0.00 0.00 0.00 63 1015.0
20260903004049 87 122 0.0 2.0 0.00 0.00 0.00 63 1015.0
20260903003548 86 122 0.0 0.0 0.00 0.00 0.00 64 1015.0
20260903003105 86 122 0.0 0.0 0.00 0.00 0.00 65 1014.9
20260903002549 85 122 0.0 0.0 0.00 0.00 0.00 67 1014.9
20260903002049 86 122 0.0 0.0 0.00 0.00 0.00 67 1014.7
20260903001550 86 122 0.0 0.0 0.00 0.00 0.00 66 1014.7
20260903001048 86 122 0.0 0.0 0.00 0.00 0.00 67 1014.6
20260903000548 86 122 0.0 0.0 0.00 0.00 0.00 66 1014.6
20260903000059 87 122 0.0 0.0 0.00 0.00 0.00 65 1014.7
20260902235548 87 122 0.0 0.0 0.00 0.00 0.00 65 1014.6
20260902235047 87 122 0.0 0.0 0.00 0.00 0.00 64 1014.5
20260902234548 87 122 0.0 0.0 0.00 0.00 0.00 65 1014.5
20260902234051 88 122 0.0 0.0 0.00 0.00 0.00 63 1014.5
20260902233547 88 122 0.0 0.0 0.00 0.00 0.00 61 1014.6
20260902233047 89 122 0.0 0.0 0.00 0.00 0.00 61 1014.6
20260902232548 89 122 0.0 0.0 0.00 0.00 0.00 60 1014.6
20260902232047 90 122 0.0 0.0 0.00 0.00 0.00 60 1014.6
20260902231548 90 122 0.0 0.0 0.00 0.00 0.00 59 1014.5
20260902231046 90 122 0.0 0.0 0.00 0.00 0.00 56 1014.5
20260902230546 90 122 0.0 0.0 0.00 0.00 0.00 55 1014.5
20260902230048 90 122 0.0 1.0 0.00 0.00 0.00 57 1014.5
20260902225548 90 122 0.0 2.0 0.00 0.00 0.00 56 1014.5
20260902225046 91 122 0.0 2.0 0.00 0.00 0.00 56 1014.5
20260902224605 91 122 0.0 1.0 0.00 0.00 0.00 57 1014.5
20260902224047 91 122 0.0 1.0 0.00 0.00 0.00 55 1014.6
20260902223547 91 122 0.0 3.0 0.00 0.00 0.00 54 1014.6
20260902223049 92 122 0.0 3.0 0.00 0.00 0.00 53 1014.6
20260902222545 92 169 0.0 1.0 0.00 0.00 0.00 53 1014.6
20260902222044 92 169 0.0 2.0 0.00 0.00 0.00 52 1014.5
20260902221544 92 149 0.0 2.0 0.00 0.00 0.00 52 1014.6
20260902221044 92 149 0.0 2.0 0.00 0.00 0.00 53 1014.7
20260902220544 92 149 0.0 2.0 0.00 0.00 0.00 51 1014.7
20260902220043 92 149 0.0 3.0 0.00 0.00 0.00 51 1014.6
20260902215542 93 149 1.0 3.0 0.00 0.00 0.00 50 1014.6
20260902215045 93 106 0.0 3.0 0.00 0.00 0.00 51 1014.6
20260902214609 93 103 0.0 3.0 0.00 0.00 0.00 50 1014.7
20260902214042 93 58 0.0 2.0 0.00 0.00 0.00 51 1014.7
20260902213541 93 346 0.0 2.0 0.00 0.00 0.00 51 1014.7
20260902213042 93 345 0.0 2.0 0.00 0.00 0.00 50 1014.8
20260902212541 93 345 0.0 2.0 0.00 0.00 0.00 50 1014.8
20260902212041 93 315 0.0 3.0 0.00 0.00 0.00 50 1014.7
20260902211541 93 293 1.0 3.0 0.00 0.00 0.00 49 1014.9
20260902211040 93 151 1.0 3.0 0.00 0.00 0.00 50 1014.9
20260902210544 93 136 0.0 4.0 0.00 0.00 0.00 50 1014.9
20260902210045 93 134 0.0 2.0 0.00 0.00 0.00 49 1014.9
20260902205538 93 143 1.0 2.0 0.00 0.00 0.00 52 1014.9
20260902205038 92 359 0.0 2.0 0.00 0.00 0.00 51 1014.9
20260902204538 92 359 0.0 2.0 0.00 0.00 0.00 53 1015.0
20260902204038 92 359 0.0 2.0 0.00 0.00 0.00 53 1015.1
20260902203536 92 359 0.0 2.0 0.00 0.00 0.00 51 1015.1
20260902203037 93 359 0.0 3.0 0.00 0.00 0.00 52 1015.1
20260902202536 93 359 0.0 3.0 0.00 0.00 0.00 51 1015.2
20260902202036 93 359 1.0 3.0 0.00 0.00 0.00 51 1015.3
20260902201539 93 360 1.0 3.0 0.00 0.00 0.00 50 1015.2
20260902201038 93 360 1.0 3.0 0.00 0.00 0.00 50 1015.2